Teterboro, NJ

5:16 PM EDT on September 27, 2016 (GMT -0400)
Teterboro

Weather History for KTEB - June, 2014

Change the Weather History Date:

Wednesday, June 18, 2014

  Actual Average Record
Temperature  
Mean Temperature 86 °F -  
Max Temperature 91 °F 79 °F 93 °F (1993)
Min Temperature 80 °F 60 °F 52 °F (2002)
Cooling Degree Days 20    
Growing Degree Days 36 (Base 50)    
Moisture  
Dew Point 63 °F    
Average Humidity 48    
Maximum Humidity 65    
Minimum Humidity 34    
Precipitation  
Precipitation 0.00 in - - ()
Sea Level Pressure  
Sea Level Pressure 29.88 in    
Wind  
Wind Speed 10 mph (WNW)    
Max Wind Speed 17 mph    
Max Gust Speed 30 mph    
Visibility 10 miles    
Events      
Averages and records for this station are not official NWS values.
T = Trace of Precipitation, MM = Missing Value Source: NWS Daily Summary

Daily Weather History Graph

Daily Weather History Graph

Search for Another Location

Airport or City:

Trip Planner

Search our weather history database for the weather conditions in past years. The results will help you decide how hot, cold, wet, or windy it might be!

Date:

Astronomy

Jun. 18, 2014 Rise Set
Actual Time 5:24 AM EDT 8:30 PM EDT
Civil Twilight 4:50 AM EDT 9:04 PM EDT
Nautical Twilight 4:07 AM EDT 9:47 PM EDT
Astronomical Twilight 3:17 AM EDT 10:37 PM EDT
Moon No Moon Rise 11:46 AM EDT (6/18)
Length of Visible Light 16h 13m
Length of Day
15h 06m
Waning Gibbous, 63% of the Moon is Illuminated
Jun 18
Waning Gibbous
Jun 19
Last Quarter
Jun 27
New
Jul 5
First Quarter
Jul 12
Full

Hourly Weather History & Observations

Time (EDT) Temp. Heat Index Dew Point Humidity Pressure Visibility Wind Dir Wind Speed Gust Speed Precip Events Conditions
12:51 AM 84.0 °F 86.5 °F 66.9 °F 56% 29.86 in 10.0 mi SSW 10.4 mph - N/A   Clear
1:51 AM 82.0 °F 84.5 °F 66.9 °F 60% 29.85 in 10.0 mi SSW 4.6 mph - N/A   Clear
2:51 AM 81.0 °F 83.8 °F 68.0 °F 65% 29.83 in 10.0 mi SSW 6.9 mph - N/A   Clear
3:51 AM 82.9 °F 85.8 °F 68.0 °F 60% 29.81 in 10.0 mi SW 11.5 mph - N/A   Clear
4:51 AM 82.4 °F 85.4 °F 68.0 °F 62% 29.80 in 10.0 mi WSW 6.9 mph - N/A   Clear
5:51 AM 82.0 °F 84.1 °F 66.0 °F 58% 29.81 in 10.0 mi West 9.2 mph - N/A   Clear
6:51 AM 82.9 °F 84.0 °F 63.0 °F 51% 29.82 in 10.0 mi West 11.5 mph - N/A   Clear
7:51 AM 82.4 °F 83.4 °F 62.6 °F 51% 29.83 in 9.0 mi NW 11.5 mph 20.7 mph N/A   Clear
8:41 AM 84.2 °F 85.6 °F 64.4 °F 51% 29.84 in 10.0 mi WNW 13.8 mph 23.0 mph N/A   Widespread Dust
8:51 AM 84.0 °F 85.4 °F 64.0 °F 51% 29.84 in 10.0 mi WNW 17.3 mph 24.2 mph N/A   Widespread Dust
9:06 AM 84.2 °F 85.0 °F 62.6 °F 48% 29.85 in 6.0 mi WNW 16.1 mph 26.5 mph N/A   Haze
9:51 AM 84.9 °F 86.1 °F 64.0 °F 49% 29.86 in 10.0 mi NW 17.3 mph 27.6 mph N/A   Widespread Dust
10:51 AM 87.1 °F 88.3 °F 64.0 °F 46% 29.87 in 10.0 mi NNW 15.0 mph 24.2 mph N/A   Widespread Dust
11:51 AM 88.0 °F 89.3 °F 64.0 °F 45% 29.87 in 10.0 mi NW 15.0 mph 23.0 mph N/A   Widespread Dust
12:51 PM 88.0 °F 88.7 °F 63.0 °F 43% 29.90 in 10.0 mi NW 13.8 mph 29.9 mph N/A   Widespread Dust
1:51 PM 88.0 °F 87.9 °F 61.0 °F 40% 29.92 in 10.0 mi North 13.8 mph 25.3 mph N/A   Widespread Dust
2:51 PM 90.0 °F 90.0 °F 61.0 °F 38% 29.90 in 10.0 mi NW 11.5 mph 20.7 mph N/A   Widespread Dust
3:51 PM 89.6 °F 89.5 °F 60.8 °F 38% 29.89 in 10.0 mi NW 13.8 mph 18.4 mph N/A   Widespread Dust
4:51 PM 89.1 °F 88.0 °F 57.9 °F 35% 29.90 in 10.0 mi NNW 10.4 mph - N/A   Clear
5:51 PM 90.0 °F 89.7 °F 60.1 °F 37% 29.90 in 10.0 mi West 6.9 mph - N/A   Clear
6:51 PM 90.0 °F 88.8 °F 57.9 °F 34% 29.90 in 10.0 mi NW 11.5 mph 17.3 mph N/A   Clear
7:51 PM 87.1 °F 86.1 °F 57.9 °F 37% 29.93 in 10.0 mi NW 6.9 mph - N/A   Partly Cloudy
8:51 PM 84.9 °F 84.8 °F 60.1 °F 43% 29.94 in 10.0 mi NNW 4.6 mph - N/A   Clear
9:51 PM 82.9 °F 83.2 °F 60.1 °F 46% 29.95 in 10.0 mi NNW 3.5 mph - N/A   Clear
10:51 PM 82.0 °F 82.4 °F 60.1 °F 47% 29.96 in 10.0 mi North 6.9 mph - N/A   Clear
11:51 PM 80.1 °F 81.2 °F 62.1 °F 54% 29.95 in 10.0 mi NNE 3.5 mph - N/A   Clear